Location: *
(2.7500°S, 66.6833°W)
Time: 03:55:11
(UTC+00:00)

Milstar 3 - Pass Details

Date: 24 May 2024
Orbit: 1097 x 5147 km, 28.2° (Epoch: 23 June)

Event Time Altitude Azimuth Distance (km) Brightness Sun altitude
Rises 23:32:22 0° 299° (WNW) 3,892 7.4 -17.0°
Reaches altitude 10° 23:34:47 10° 298° (WNW) 2,974 6.3 -17.6°
Maximum altitude 23:41:35 86° 211° (SSW) 1,340 3.1 -19.1°
Enters shadow 23:47:11 28° 122° (ESE) 2,741 4.2 -20.4°
